Weather History for Kenansville, NC

Change the Weather History Date:

Wednesday, January 23, 2013

  Actual Average (KGSB) Record (KGSB)
Temperature  
Mean Temperature 30 °F -  
Max Temperature 40 °F 49 °F 77 °F (1999)
Min Temperature 19 °F 31 °F 15 °F (2003)
Degree Days  
Heating Degree Days 36    
Moisture  
Dew Point 13 °F    
Average Humidity 56    
Maximum Humidity 86    
Minimum Humidity 26    
Precipitation  
Precipitation 0.00 in - - ()
Sea Level Pressure  
Sea Level Pressure 30.30 in    
Wind  
Wind Speed 1 mph (NW)    
Max Wind Speed 8 mph    
Max Gust Speed -    
Visibility 10 miles    
Events      
Averages and records for this station are not official NWS values.
T = Trace of Precipitation, MM = Missing Value Source: NWS Daily Summary

Daily Weather History Graph

Daily Weather History Graph

Search for Another Location

Airport:

Trip Planner

Search our weather history database for the weather conditions in past years. The results will help you decide how hot, cold, wet, or windy it might be!

Date:

Astronomy

Jan. 23, 2013 Rise Set
Actual Time 7:16 AM EST 5:31 PM EST
Civil Twilight 6:49 AM EST 5:58 PM EST
Nautical Twilight 6:18 AM EST 6:29 PM EST
Astronomical Twilight 5:48 AM EST 6:59 PM EST
Moon 2:42 PM EST (1/23) 4:24 AM EST (1/23)
Length of Visible Light 11h 09m
Length of Day
10h 15m
Waxing Gibbous, 89% of the Moon is Illuminated
Jan 23
Waxing Gibbous
Jan 26
Full
Feb 3
Last Quarter
Feb 10
New
Feb 17
First Quarter

Hourly Weather History & Observations

Time (EST) Temp. Windchill Dew Point Humidity Pressure Visibility Wind Dir Wind Speed Gust Speed Precip Events Conditions
12:15 AM 25.7 °F - 11.8 °F 56% 30.29 in 10.0 mi Calm Calm - N/A   Clear
12:35 AM 26.1 °F - 9.9 °F 50% 30.30 in 10.0 mi Calm Calm - N/A   Clear
12:55 AM 24.4 °F - 10.6 °F 56% 30.30 in 10.0 mi Calm Calm - N/A   Clear
1:15 AM 23.7 °F - 13.6 °F 65% 30.30 in 10.0 mi Calm Calm - N/A   Clear
1:35 AM 22.6 °F - 13.8 °F 69% 30.30 in 10.0 mi Calm Calm - N/A   Clear
1:55 AM 22.3 °F - 14.0 °F 71% 30.31 in 10.0 mi Calm Calm - N/A   Clear
2:15 AM 22.5 °F - 12.9 °F 67% 30.31 in 10.0 mi Calm Calm - N/A   Clear
2:35 AM 23.7 °F - 11.5 °F 60% 30.31 in 10.0 mi Calm Calm - N/A   Clear
2:55 AM 22.6 °F - 11.7 °F 63% 30.32 in 10.0 mi Calm Calm - N/A   Clear
3:15 AM 21.6 °F - 12.6 °F 68% 30.32 in 10.0 mi Calm Calm - N/A   Clear
3:35 AM 21.6 °F - 12.4 °F 68% 30.32 in 10.0 mi Calm Calm - N/A   Clear
3:55 AM 20.8 °F - 13.6 °F 74% 30.32 in 10.0 mi Calm Calm - N/A   Clear
4:15 AM 20.1 °F - 14.0 °F 77% 30.33 in 10.0 mi Calm Calm - N/A   Clear
4:35 AM 19.9 °F - 14.5 °F 80% 30.33 in 10.0 mi Calm Calm - N/A   Clear
4:55 AM 19.4 °F - 14.5 °F 81% 30.33 in 10.0 mi Calm Calm - N/A   Clear
5:15 AM 19.2 °F - 14.5 °F 82% 30.34 in 10.0 mi Calm Calm - N/A   Clear
5:35 AM 19.4 °F - 14.7 °F 82% 30.35 in 10.0 mi Calm Calm - N/A   Clear
5:55 AM 19.4 °F - 14.7 °F 82% 30.35 in 10.0 mi Calm Calm - N/A   Clear
6:15 AM 19.4 °F - 14.9 °F 83% 30.35 in 10.0 mi Calm Calm - N/A   Clear
6:35 AM 19.4 °F - 14.5 °F 81% 30.36 in 10.0 mi Calm Calm - N/A   Clear
6:55 AM 19.2 °F - 14.2 °F 81% 30.36 in 10.0 mi Calm Calm - N/A   Clear
7:15 AM 19.2 °F - 14.0 °F 80% 30.36 in 10.0 mi Calm Calm - N/A   Clear
7:35 AM 19.0 °F - 14.2 °F 81% 30.37 in 10.0 mi Calm Calm - N/A   Clear
7:55 AM 19.9 °F - 16.3 °F 86% 30.38 in 10.0 mi Calm Calm - N/A   Clear
8:15 AM 22.6 °F - 16.3 °F 77% 30.38 in 10.0 mi Calm Calm - N/A   Clear
8:35 AM 24.8 °F - 11.5 °F 57% 30.39 in 10.0 mi Calm Calm - N/A   Clear
8:55 AM 26.6 °F - 10.9 °F 52% 30.40 in 10.0 mi Calm Calm - N/A   Clear
9:15 AM 27.5 °F 23.6 °F 7.9 °F 44% 30.41 in 10.0 mi NE 3.5 mph - N/A   Clear
9:35 AM 28.0 °F 24.2 °F 5.0 °F 38% 30.40 in 10.0 mi NE 3.5 mph - N/A   Clear
9:55 AM 29.7 °F - 4.8 °F 35% 30.41 in 10.0 mi Calm Calm - N/A   Clear
10:15 AM 30.6 °F - 3.0 °F 31% 30.41 in 10.0 mi Calm Calm - N/A   Clear
10:35 AM 31.6 °F 28.3 °F 3.4 °F 30% 30.41 in 10.0 mi North 3.5 mph - N/A   Clear
10:55 AM 32.0 °F 27.5 °F 2.3 °F 28% 30.40 in 10.0 mi North 4.6 mph - N/A   Clear
11:15 AM 32.9 °F 25.9 °F 2.7 °F 28% 30.39 in 10.0 mi North 8.1 mph - N/A   Clear
11:35 AM 33.3 °F 28.9 °F 1.8 °F 26% 30.38 in 10.0 mi ENE 4.6 mph - N/A   Clear
11:55 AM 34.3 °F 29.2 °F 3.0 °F 27% 30.37 in 10.0 mi NNW 5.8 mph - N/A   Clear
12:15 PM 34.9 °F 30.8 °F 3.7 °F 27% 30.36 in 10.0 mi NW 4.6 mph - N/A   Clear
12:35 PM 35.2 °F 29.5 °F 4.3 °F 27% 30.34 in 10.0 mi NNW 6.9 mph - N/A   Clear
12:55 PM 35.1 °F - 3.9 °F 27% 30.33 in 10.0 mi Calm Calm - N/A   Clear
1:15 PM 37.4 °F 32.1 °F 6.6 °F 28% 30.32 in 10.0 mi WNW 6.9 mph - N/A   Clear
1:35 PM 37.8 °F 34.2 °F 6.6 °F 27% 30.30 in 10.0 mi WNW 4.6 mph - N/A   Clear
1:55 PM 38.1 °F 33.7 °F 7.3 °F 28% 30.29 in 10.0 mi WSW 5.8 mph - N/A   Clear
2:15 PM 39.0 °F 34.8 °F 8.1 °F 28% 30.28 in 10.0 mi West 5.8 mph - N/A   Clear
2:35 PM 38.7 °F - 8.2 °F 28% 30.28 in 10.0 mi Calm Calm - N/A   Clear
2:55 PM 40.6 °F 36.0 °F 9.9 °F 28% 30.27 in 10.0 mi WNW 6.9 mph - N/A   Clear
3:15 PM 39.9 °F 35.8 °F 9.5 °F 29% 30.27 in 10.0 mi WNW 5.8 mph - N/A   Clear
3:35 PM 40.5 °F 36.5 °F 9.7 °F 28% 30.27 in 10.0 mi West 5.8 mph - N/A   Clear
3:55 PM 40.1 °F 35.3 °F 9.7 °F 29% 30.27 in 10.0 mi WNW 6.9 mph - N/A   Clear
4:15 PM 40.3 °F 36.3 °F 9.7 °F 28% 30.25 in 10.0 mi West 5.8 mph - N/A   Clear
4:35 PM 40.5 °F 38.4 °F 10.6 °F 29% 30.25 in 10.0 mi SW 3.5 mph - N/A   Clear
4:55 PM 39.0 °F - 11.1 °F 32% 30.25 in 10.0 mi Calm Calm - N/A   Clear
5:15 PM 36.1 °F - 15.4 °F 43% 30.25 in 10.0 mi Calm Calm - N/A   Clear
5:35 PM 33.3 °F - 16.9 °F 51% 30.25 in 10.0 mi Calm Calm - N/A   Clear
5:55 PM 31.5 °F - 18.0 °F 57% 30.25 in 10.0 mi Calm Calm - N/A   Clear
6:15 PM 30.0 °F - 17.8 °F 60% 30.25 in 10.0 mi Calm Calm - N/A   Clear
6:35 PM 28.9 °F - 17.6 °F 63% 30.25 in 10.0 mi Calm Calm - N/A   Clear
6:55 PM 28.4 °F - 17.8 °F 64% 30.25 in 10.0 mi Calm Calm - N/A   Clear
7:15 PM 28.4 °F - 18.3 °F 66% 30.23 in 10.0 mi Calm Calm - N/A   Clear
7:35 PM 28.4 °F - 19.4 °F 69% 30.23 in 10.0 mi Calm Calm - N/A   Clear
7:55 PM 28.4 °F - 19.6 °F 70% 30.23 in 10.0 mi Calm Calm - N/A   Clear
8:15 PM 28.0 °F - 19.4 °F 70% 30.20 in 10.0 mi Calm Calm - N/A   Clear
8:35 PM 27.5 °F - 19.8 °F 73% 30.20 in 10.0 mi Calm Calm - N/A   Clear
8:55 PM 28.2 °F - 19.4 °F 70% 30.21 in 10.0 mi Calm Calm - N/A   Clear
9:15 PM 28.9 °F - 19.8 °F 69% 30.20 in 10.0 mi Calm Calm - N/A   Clear
9:35 PM 30.0 °F - 20.1 °F 67% 30.19 in 10.0 mi Calm Calm - N/A   Clear
9:55 PM 30.4 °F - 20.3 °F 66% 30.19 in 10.0 mi Calm Calm - N/A   Clear
10:15 PM 30.9 °F - 20.3 °F 65% 30.18 in 10.0 mi Calm Calm - N/A   Clear
10:35 PM 30.6 °F - 20.8 °F 67% 30.17 in 10.0 mi Calm Calm - N/A   Clear
10:55 PM 30.9 °F - 21.0 °F 67% 30.15 in 10.0 mi Calm Calm - N/A   Clear
11:15 PM 30.9 °F - 21.0 °F 67% 30.15 in 10.0 mi Calm Calm - N/A   Clear
11:35 PM 29.7 °F - 21.2 °F 71% 30.13 in 10.0 mi Calm Calm - N/A   Clear
11:55 PM 28.9 °F - 21.9 °F 75% 30.13 in 10.0 mi Calm Calm - N/A   Clear